Date String (YYYY-MM-DD hh:mm:ss) UTC,Instrument flags,Ambient pressure (hPa),Sample flow (lpm),Bypass flow (lpm),Sample temperature (°C),Ambient temperature (°C),ASC tube jacket temperature (°C),LED temperature (°C),Box temperature (°C),Sample RH (%),Span deviation,Mass concentration (μg/m³),Mass concentration (μg/m³),Mass concentration (μg/m³)
DateTimeUTC,F1_M11,P_M11,Q1_M11,Q2_M11,T1_M11,T2_M11,T3_M11,T4_M11,T5_M11,U1_M11,ZSPAN_M11,X0_M11,X2_M11,X1_M11
2022-04-16 05:00:00,,0827.1,5.00,0.00,26.4,25.5,00.0,35.4,28.2,08.6,0000.0,0018.59,0005.02,0003.30
2022-04-16 05:01:00,,0827.1,5.00,0.00,26.4,25.4,00.0,35.4,28.2,08.6,0000.0,0018.12,0005.01,0003.28
2022-04-16 05:02:00,,0827.1,4.99,0.00,26.4,25.4,00.0,35.4,28.2,08.6,0000.0,0017.50,0004.95,0003.28
2022-04-16 05:03:00,,0827.1,5.00,0.00,26.4,25.4,00.0,35.4,28.2,08.6,0000.0,0017.55,0004.91,0003.27
2022-04-16 05:04:00,,0827.1,5.01,0.00,26.4,25.5,00.0,35.4,28.2,08.6,0000.0,0017.20,0004.85,0003.28
2022-04-16 05:05:00,,0827.1,5.01,0.00,26.4,25.5,00.0,35.4,28.2,08.6,0000.0,0016.99,0004.86,0003.27
2022-04-16 05:06:00,,0827.1,5.00,0.00,26.4,25.4,00.0,35.4,28.2,08.6,0000.0,0016.70,0004.84,0003.26
2022-04-16 05:07:00,,0827.2,4.99,0.00,26.4,25.5,00.0,35.4,28.2,08.6,0000.0,0015.91,0004.85,0003.25
2022-04-16 05:08:00,,0827.2,5.00,0.00,26.4,25.5,00.0,35.3,28.2,08.7,0000.0,0016.92,0004.90,0003.25
2022-04-16 05:09:00,,0827.1,5.01,0.00,26.4,25.4,00.0,35.3,28.2,08.7,0000.0,0016.83,0004.91,0003.25
2022-04-16 05:10:00,,0827.2,5.01,0.00,26.4,25.4,00.0,35.3,28.2,08.6,0000.0,0016.29,0004.90,0003.26
2022-04-16 05:11:00,,0827.2,5.00,0.00,26.4,25.5,00.0,35.3,28.2,08.6,0000.0,0016.32,0004.91,0003.27
2022-04-16 05:12:00,,0827.1,4.99,0.00,26.4,25.4,00.0,35.3,28.2,08.6,0000.0,0016.67,0004.89,0003.26
2022-04-16 05:13:00,,0827.1,4.99,0.00,26.4,25.4,00.0,35.3,28.2,08.6,0000.0,0017.81,0004.92,0003.25
2022-04-16 05:14:00,,0827.5,4.99,0.00,26.4,25.4,00.0,35.3,28.2,08.6,0000.0,0017.64,0004.92,0003.25
2022-04-16 05:15:00,,0827.7,4.99,0.00,26.4,25.4,00.0,35.3,28.2,08.6,0000.0,0017.45,0004.92,0003.24
2022-04-16 05:16:00,,0827.4,5.00,0.00,26.4,25.4,00.0,35.3,28.2,08.6,0000.0,0017.61,0004.95,0003.24
2022-04-16 05:17:00,,0827.2,5.00,0.00,26.4,25.4,00.0,35.3,28.2,08.6,0000.0,0018.36,0004.97,0003.25
2022-04-16 05:18:00,,0827.2,5.00,0.00,26.4,25.4,00.0,35.3,28.2,08.6,0000.0,0018.34,0004.98,0003.27
2022-04-16 05:19:00,,0827.4,5.01,0.00,26.4,25.4,00.0,35.3,28.2,08.6,0000.0,0017.44,0004.95,0003.27
2022-04-16 05:20:00,,0827.4,5.00,0.00,26.3,25.3,00.0,35.3,28.1,08.6,0000.0,0017.20,0004.96,0003.27
2022-04-16 05:21:00,,0827.2,5.00,0.00,26.3,25.3,00.0,35.3,28.1,08.6,0000.0,0016.94,0004.93,0003.26
2022-04-16 05:22:00,,0827.3,4.99,0.00,26.3,25.4,00.0,35.3,28.1,08.6,0000.0,0017.64,0004.89,0003.25
2022-04-16 05:23:00,,0827.3,5.00,0.00,26.3,25.3,00.0,35.3,28.1,08.6,0000.0,0016.97,0004.87,0003.24
2022-04-16 05:24:00,,0827.3,5.01,0.00,26.3,25.3,00.0,35.2,28.1,08.6,0000.0,0016.15,0004.88,0003.26
2022-04-16 05:25:00,,0827.3,5.00,0.00,26.3,25.3,00.0,35.2,28.1,08.6,0000.0,0016.47,0004.91,0003.27
2022-04-16 05:26:00,,0827.3,5.00,0.00,26.3,25.3,00.0,35.2,28.1,08.6,0000.0,0016.82,0004.95,0003.28
2022-04-16 05:27:00,,0827.4,4.99,0.00,26.3,25.3,00.0,35.2,28.1,08.6,0000.0,0016.68,0004.89,0003.28
2022-04-16 05:28:00,,0827.4,5.01,0.00,26.3,25.3,00.0,35.2,28.1,08.6,0000.0,0016.11,0004.89,0003.28
2022-04-16 05:29:00,,0827.4,5.00,0.00,26.3,25.3,00.0,35.2,28.1,08.6,0000.0,0015.57,0004.90,0003.28
2022-04-16 05:30:00,,0827.4,5.00,0.00,26.3,25.3,00.0,35.2,28.1,08.6,0000.0,0016.20,0004.94,0003.29
2022-04-16 05:31:00,,0827.4,5.00,0.00,26.3,25.2,00.0,35.2,28.0,08.6,0000.0,0016.34,0004.93,0003.30
2022-04-16 05:32:00,,0827.4,5.00,0.00,26.2,25.2,00.0,35.2,28.0,08.6,0000.0,0016.90,0004.95,0003.30
2022-04-16 05:33:00,,0827.4,5.00,0.00,26.2,25.2,00.0,35.2,28.0,08.6,0000.0,0015.89,0004.98,0003.31
2022-04-16 05:34:00,,0827.4,5.00,0.00,26.2,25.2,00.0,35.2,28.0,08.6,0000.0,0016.47,0005.05,0003.33
2022-04-16 05:35:00,,0827.4,5.00,0.00,26.2,25.1,00.0,35.2,28.0,08.6,0000.0,0016.91,0005.06,0003.35
2022-04-16 05:36:00,,0827.4,5.01,0.00,26.2,25.1,00.0,35.1,28.0,08.7,0000.0,0016.49,0005.05,0003.36
2022-04-16 05:37:00,,0827.4,5.01,0.00,26.2,25.1,00.0,35.1,28.0,08.7,0000.0,0017.73,0005.06,0003.37
2022-04-16 05:38:00,,0827.4,5.00,0.00,26.2,25.1,00.0,35.1,28.0,08.7,0000.0,0018.03,0005.07,0003.39
2022-04-16 05:39:00,,0827.4,4.99,0.00,26.2,25.1,00.0,35.1,27.9,08.8,0000.0,0018.03,0005.03,0003.42
2022-04-16 05:40:00,,0827.4,5.00,0.00,26.2,25.1,00.0,35.1,27.9,08.8,0000.0,0017.92,0005.00,0003.43
2022-04-16 05:41:00,,0827.4,5.00,0.00,26.1,25.1,00.0,35.1,27.9,08.9,0000.0,0017.32,0004.94,0003.43
2022-04-16 05:42:00,,0827.4,5.01,0.00,26.1,25.1,00.0,35.1,27.9,08.9,0000.0,0017.57,0004.92,0003.43
2022-04-16 05:43:00,,0827.5,5.01,0.00,26.1,25.2,00.0,35.1,27.9,08.9,0000.0,0017.47,0004.92,0003.43
2022-04-16 05:44:00,,0827.5,5.00,0.00,26.1,25.2,00.0,35.1,28.0,08.9,0000.0,0018.36,0004.93,0003.44
2022-04-16 05:45:00,,0827.5,4.99,0.00,26.1,25.2,00.0,35.1,28.0,08.9,0000.0,0018.68,0004.88,0003.44
2022-04-16 05:46:00,,0827.5,5.01,0.00,26.2,25.2,00.0,35.1,28.0,08.9,0000.0,0018.86,0004.87,0003.41
2022-04-16 05:47:00,,0827.5,5.00,0.00,26.2,25.3,00.0,35.1,28.0,08.9,0000.0,0018.83,0004.87,0003.40
2022-04-16 05:48:00,,0827.6,5.00,0.00,26.2,25.3,00.0,35.1,28.0,08.9,0000.0,0016.93,0004.82,0003.38
2022-04-16 05:49:00,,0827.5,4.99,0.00,26.2,25.3,00.0,35.1,28.0,08.9,0000.0,0017.41,0004.81,0003.36
2022-04-16 05:50:00,,0827.5,5.00,0.00,26.2,25.3,00.0,35.1,28.0,08.9,0000.0,0018.47,0004.80,0003.33
2022-04-16 05:51:00,,0827.6,4.99,0.00,26.2,25.3,00.0,35.1,28.0,08.9,0000.0,0018.91,0004.83,0003.31
2022-04-16 05:52:00,,0827.6,4.99,0.00,26.2,25.3,00.0,35.1,28.0,08.9,0000.0,0019.00,0004.86,0003.31
2022-04-16 05:53:00,,0827.5,5.00,0.00,26.2,25.4,00.0,35.1,28.1,08.9,0000.0,0018.47,0004.92,0003.33
2022-04-16 05:54:00,,0827.5,5.00,0.00,26.2,25.4,00.0,35.1,28.1,08.9,0000.0,0017.39,0004.98,0003.35
2022-04-16 05:55:00,,0827.5,5.01,0.00,26.2,25.4,00.0,35.1,28.1,08.9,0000.0,0017.00,0005.04,0003.35
2022-04-16 05:56:00,,0827.5,5.01,0.00,26.2,25.4,00.0,35.1,28.1,08.9,0000.0,0016.14,0005.10,0003.37
2022-04-16 05:57:00,,0827.5,5.01,0.00,26.2,25.4,00.0,35.1,28.1,08.9,0000.0,0016.41,0005.11,0003.39
2022-04-16 05:58:00,,0827.5,5.01,0.00,26.2,25.4,00.0,35.1,28.1,08.9,0000.0,0016.65,0005.13,0003.40
2022-04-16 05:59:00,,0827.5,5.00,0.00,26.2,25.4,00.0,35.1,28.1,08.8,0000.0,0017.01,0005.16,0003.42
